period_start,C,m1,H,J0,J1,J2,J3,J4,J5,JA,JB,JC,JD,JJ,JK,JN,#
2017-10-24 00:03:29,0.27,6.79,0.00,16.87,20.23,23.31,14.16,47.68,1008.64,2052.99,1824.11,1721.35,1987.48,599.81,603.65,57.76,0000 0000 0000 0000 000000
2017-10-24 00:08:30,0.30,6.80,0.00,16.88,20.24,23.32,14.10,47.68,1008.59,2052.99,1821.83,1719.47,1985.30,600.07,603.88,57.81,0000 0000 0000 0000 000000
2017-10-24 00:13:32,0.28,6.82,0.00,16.88,20.24,23.30,14.11,47.67,1008.44,2052.99,1819.68,1717.53,1983.22,599.88,603.66,57.86,0000 0000 0000 0000 000000
2017-10-24 00:18:33,0.29,6.83,0.00,16.89,20.24,23.31,14.13,47.69,1008.36,2052.98,1817.57,1715.58,1980.93,599.88,603.65,57.91,0000 0000 0000 0000 000000
2017-10-24 00:23:34,0.18,6.84,0.00,16.90,20.24,23.33,14.12,47.64,1008.37,2052.98,1815.92,1714.10,1979.23,599.81,603.46,57.96,0000 0000 0000 0000 000000
2017-10-24 00:28:36,0.17,6.85,0.00,16.88,20.24,23.30,14.07,47.67,1008.36,2052.97,1814.47,1712.96,1977.88,599.67,603.46,58.01,0000 0000 0000 0000 000000
2017-10-24 00:33:37,0.14,6.86,0.00,16.90,20.24,23.32,14.12,47.70,1008.33,2052.97,1813.26,1712.01,1976.81,599.99,603.63,58.06,0000 0000 0000 0000 000000
2017-10-24 00:38:38,0.23,6.87,0.00,16.90,20.24,23.33,14.13,47.83,1008.33,2052.99,1811.69,1710.75,1975.54,600.01,603.73,58.11,0000 0000 0000 0000 000000
2017-10-24 00:43:39,0.21,6.88,0.00,16.92,20.24,23.35,14.07,47.71,1008.32,2052.98,1809.87,1709.39,1973.89,599.89,603.40,58.16,0000 0000 0000 0000 000000
2017-10-24 00:48:41,0.20,6.89,0.00,16.90,20.24,23.34,14.06,47.73,1008.32,2052.99,1808.12,1707.93,1972.34,599.53,603.12,58.21,0000 0000 0000 0000 000000
2017-10-24 00:53:42,0.24,6.90,0.00,16.93,20.25,23.33,14.08,47.71,1008.32,2052.99,1806.34,1706.56,1970.68,600.07,603.62,58.26,0000 0000 0000 0000 000000
2017-10-24 00:58:43,0.18,6.92,0.00,16.93,20.25,23.32,14.13,47.68,1008.32,2052.99,1804.77,1705.23,1969.19,600.40,604.14,58.31,0000 0000 0000 0000 000000
2017-10-24 01:03:44,0.16,6.92,0.00,16.94,20.26,23.33,14.14,47.79,1008.31,2052.99,1803.47,1704.19,1968.03,600.08,603.61,58.36,0000 0000 0000 0000 000000
2017-10-24 01:08:45,0.18,6.93,0.00,16.96,20.27,23.34,14.15,47.69,1008.18,2052.99,1802.04,1703.07,1966.74,600.34,603.65,58.41,0000 0000 0000 0000 000000
2017-10-24 01:13:46,0.18,6.94,0.00,16.97,20.27,23.35,14.14,47.71,1008.20,2052.99,1800.56,1701.92,1965.41,600.18,603.51,58.46,0000 0000 0000 0000 000000
2017-10-24 01:18:48,0.10,6.95,0.00,16.98,20.27,23.31,14.12,47.77,1008.19,2052.99,1799.87,1701.07,1964.38,599.73,603.15,58.51,0000 0000 0000 0000 000000
2017-10-24 01:23:49,0.11,6.95,0.00,16.98,20.28,23.34,14.15,47.72,1008.01,2052.97,1799.06,1700.46,1963.73,600.27,603.61,58.56,0000 0000 0000 0000 000000
2017-10-24 01:28:50,0.08,6.96,0.00,16.97,20.29,23.39,14.18,47.80,1007.97,2052.96,1798.20,1699.93,1962.96,600.21,603.46,58.61,0000 0000 0000 0000 000000
2017-10-24 01:33:51,0.14,6.97,0.00,16.97,20.29,23.33,14.05,47.73,1007.86,2052.97,1797.32,1699.05,1961.99,599.97,603.15,58.67,0000 0000 0000 0000 000000
2017-10-24 01:38:52,0.17,6.97,0.00,16.95,20.29,23.40,14.13,47.75,1007.86,2052.95,1795.98,1697.99,1960.76,600.13,603.42,58.72,0000 0000 0000 0000 000000
2017-10-24 01:43:53,0.16,6.98,0.00,16.98,20.29,23.37,14.19,47.91,1007.86,2052.95,1794.69,1697.00,1959.66,600.07,603.23,58.77,0000 0000 0000 0000 000000
2017-10-24 01:48:55,0.13,6.99,0.00,17.00,20.30,23.35,14.14,47.79,1007.84,2052.94,1793.67,1696.10,1958.65,600.23,603.33,58.82,0000 0000 0000 0000 000000
2017-10-24 01:53:56,0.14,7.00,0.00,17.00,20.30,23.37,14.17,47.89,1007.83,2052.90,1792.55,1695.24,1957.66,599.83,602.91,58.87,0000 0000 0000 0000 000000
2017-10-24 01:58:58,0.11,7.00,0.00,17.00,20.31,23.38,14.13,47.73,1007.83,2052.85,1791.64,1694.42,1956.78,600.15,603.18,58.92,0000 0000 0000 0000 000000
2017-10-24 02:03:59,0.09,7.01,0.00,17.00,20.32,23.38,14.11,47.81,1007.83,2052.86,1790.74,1693.78,1955.94,599.67,602.77,58.97,0000 0000 0000 0000 000000
2017-10-24 02:09:01,0.08,7.01,0.00,17.01,20.32,23.43,14.13,47.86,1007.83,2052.58,1789.79,1693.02,1955.06,600.17,603.32,59.02,0000 0000 0000 0000 000000
2017-10-24 02:14:02,0.11,7.02,0.00,17.01,20.32,23.37,14.16,47.74,1007.83,2052.57,1789.00,1692.25,1954.27,600.54,603.64,59.07,0000 0000 0000 0000 000000
2017-10-24 02:19:03,0.09,7.02,0.00,17.02,20.32,23.41,14.16,47.74,1007.83,2052.53,1788.13,1691.82,1953.65,600.24,603.33,59.12,0000 0000 0000 0000 000000
2017-10-24 02:24:05,0.05,7.03,0.00,17.03,20.32,23.43,14.11,47.71,1007.83,2052.28,1787.41,1691.05,1952.95,599.67,602.79,59.17,0000 0000 0000 0000 000000
2017-10-24 02:29:06,0.13,7.03,0.00,17.03,20.34,23.44,14.08,47.72,1007.83,2052.27,1786.59,1690.47,1952.11,599.72,602.72,59.22,0000 0000 0000 0000 000000
2017-10-24 02:34:08,0.08,7.04,0.00,17.05,20.34,23.40,14.13,47.77,1007.83,2052.37,1785.76,1689.93,1951.56,600.12,603.00,59.27,0000 0000 0000 0000 000000
2017-10-24 02:39:09,0.11,7.04,0.00,17.03,20.34,23.40,14.15,47.80,1007.82,2052.38,1784.91,1689.10,1950.74,599.81,602.80,59.32,0000 0000 0000 0000 000000
2017-10-24 02:44:10,0.10,7.05,0.00,17.03,20.34,23.42,14.12,47.77,1007.81,2052.19,1784.03,1688.42,1949.84,599.81,602.83,59.37,0000 0000 0000 0000 000000
2017-10-24 02:49:11,0.08,7.05,0.00,17.06,20.35,23.45,14.14,47.72,1007.81,2052.07,1783.14,1687.89,1949.03,600.30,603.22,59.42,0000 0000 0000 0000 000000
2017-10-24 02:54:12,0.12,7.06,0.00,17.07,20.36,23.43,14.04,47.61,1007.82,2052.02,1782.38,1687.08,1948.22,600.11,603.04,59.47,0000 0000 0000 0000 000000
2017-10-24 02:59:14,0.14,7.07,0.00,17.07,20.37,23.44,14.16,47.87,1007.78,2052.02,1781.28,1686.23,1947.27,600.20,603.10,59.52,0000 0000 0000 0000 000000
2017-10-24 03:04:15,0.10,7.07,0.00,17.07,20.37,23.43,14.05,47.83,1007.70,2052.03,1780.42,1685.69,1946.56,599.62,602.35,59.57,0000 0000 0000 0000 000000
2017-10-24 03:09:16,0.09,7.07,0.00,17.08,20.37,23.45,14.05,47.75,1007.56,2052.01,1779.68,1684.92,1945.72,599.58,602.47,59.63,0000 0000 0000 0000 000000
2017-10-24 03:14:17,0.15,7.08,0.00,17.06,20.38,23.48,14.11,47.70,1007.63,2052.01,1778.59,1684.04,1944.70,600.17,602.96,59.68,0000 0000 0000 0000 000000
2017-10-24 03:19:18,0.13,7.09,0.00,17.07,20.39,23.46,14.10,47.80,1007.74,2052.01,1777.48,1683.14,1943.91,599.67,602.56,59.73,0000 0000 0000 0000 000000
2017-10-24 03:24:20,0.05,7.09,0.00,17.08,20.39,23.46,14.15,47.82,1007.75,2052.00,1776.90,1682.81,1943.13,600.05,602.82,59.78,0000 0000 0000 0000 000000
2017-10-24 03:29:21,0.11,7.10,0.00,17.09,20.39,23.47,14.04,47.79,1007.57,2052.00,1776.08,1682.04,1942.68,599.49,602.07,59.83,0000 0000 0000 0000 000000
2017-10-24 03:34:22,0.04,7.10,0.00,17.11,20.40,23.50,14.09,47.73,1007.43,2052.00,1775.83,1681.88,1942.02,599.84,602.46,59.88,0000 0000 0000 0000 000000
2017-10-24 03:39:24,0.09,7.11,0.00,17.14,20.42,23.51,14.13,47.77,1007.37,2051.99,1775.11,1681.17,1941.69,600.12,602.84,59.93,0000 0000 0000 0000 000000
2017-10-24 03:44:25,0.02,7.11,0.00,17.15,20.42,23.49,14.14,47.76,1007.37,2051.99,1774.94,1681.00,1941.05,600.15,602.71,59.98,0000 0000 0000 0000 000000
2017-10-24 03:49:26,0.05,7.11,0.00,17.15,20.42,23.53,14.13,47.74,1007.38,2051.98,1774.19,1680.88,1940.98,600.22,602.79,60.03,0000 0000 0000 0000 000000
2017-10-24 03:54:28,0.08,7.12,0.00,17.17,20.43,23.51,14.05,47.63,1007.36,2051.98,1773.90,1680.10,1940.24,599.95,602.42,60.08,0000 0000 0000 0000 000000
2017-10-24 03:59:29,0.05,5.93,0.00,17.15,20.45,23.50,12.32,41.74,1007.34,2052.66,2076.85,1924.08,2216.83,533.12,535.34,0.00,0000 0000 0000 0000 000002
2017-10-24 04:04:30,0.03,0.00,0.00,17.16,20.46,23.53,14.05,46.43,1007.34,2056.28,3592.30,3143.13,3600.78,599.77,602.33,0.02,0000 0000 0000 0000 000000
2017-10-24 04:09:32,0.03,0.00,0.00,17.17,20.47,23.53,14.07,46.30,1007.34,2056.16,3589.47,3141.61,3599.30,600.12,602.43,0.07,0000 0000 0000 0000 000000
2017-10-24 04:14:33,0.04,0.00,0.00,17.18,20.47,23.55,14.09,46.19,1007.34,2056.08,3586.94,3139.87,3597.34,600.09,602.54,0.12,0000 0000 0000 0000 000000
2017-10-24 04:19:34,0.06,0.01,0.00,17.19,20.47,23.55,14.05,46.19,1007.34,2056.04,3584.82,3138.38,3595.51,599.88,602.33,0.17,0000 0000 0000 0000 000000
2017-10-24 04:24:36,0.07,0.01,0.00,17.21,20.48,23.60,14.05,46.11,1007.34,2056.04,3582.95,3136.95,3593.84,600.18,602.44,0.22,0000 0000 0000 0000 000000
2017-10-24 04:29:37,0.08,0.02,0.00,17.22,20.49,23.57,14.12,46.06,1007.34,2056.03,3581.01,3135.49,3592.17,600.09,602.45,0.27,0000 0000 0000 0000 000000
2017-10-24 04:34:38,0.11,0.02,0.00,17.22,20.49,23.59,14.02,46.08,1007.34,2056.03,3578.49,3133.77,3590.15,599.60,601.87,0.32,0000 0000 0000 0000 000000
2017-10-24 04:39:40,0.10,0.03,0.00,17.22,20.50,23.56,14.09,45.93,1007.33,2056.03,3576.12,3132.04,3588.15,600.28,602.56,0.37,0000 0000 0000 0000 000000
2017-10-24 04:44:41,0.11,0.03,0.00,17.23,20.52,23.61,14.11,46.04,1007.25,2056.02,3573.78,3130.33,3586.13,600.11,602.17,0.42,0000 0000 0000 0000 000000
2017-10-24 04:49:42,0.10,0.04,0.00,17.24,20.52,23.61,14.04,45.94,1007.12,2056.02,3571.59,3128.63,3584.32,599.67,601.91,0.47,0000 0000 0000 0000 000000
2017-10-24 04:54:43,0.08,0.04,0.00,17.24,20.54,23.57,14.09,45.92,1006.99,2056.00,3569.80,3127.22,3582.60,600.09,602.16,0.52,0000 0000 0000 0000 000000
2017-10-24 04:59:45,0.10,0.05,0.00,17.25,20.54,23.59,14.07,45.98,1007.08,2056.00,3567.80,3125.61,3580.75,599.81,602.00,0.57,0000 0000 0000 0000 000000
2017-10-24 05:04:46,0.07,0.05,0.00,17.24,20.55,23.60,14.10,46.08,1007.14,2056.00,3565.88,3124.19,3579.16,600.24,602.44,0.62,0000 0000 0000 0000 000000
2017-10-24 05:09:48,0.09,0.06,0.00,17.25,20.57,23.64,14.09,46.10,1007.05,2056.00,3564.03,3122.76,3577.62,599.87,601.99,0.67,0000 0000 0000 0000 000000
2017-10-24 05:14:49,0.07,0.06,0.00,17.27,20.57,23.66,14.03,45.88,1006.95,2055.99,3562.13,3121.43,3576.14,599.87,601.90,0.72,0000 0000 0000 0000 000000
2017-10-24 05:19:50,0.07,0.06,0.00,17.24,20.57,23.65,14.12,46.05,1006.96,2055.99,3560.54,3120.37,3574.90,599.80,601.99,0.77,0000 0000 0000 0000 000000
2017-10-24 05:24:51,0.09,0.07,0.00,17.25,20.58,23.66,14.08,46.00,1007.01,2055.99,3558.72,3118.94,3573.30,600.10,602.29,0.82,0000 0000 0000 0000 000000
2017-10-24 05:29:53,0.10,0.07,0.00,17.26,20.59,23.69,14.01,45.95,1007.05,2055.98,3556.54,3117.29,3571.32,599.88,602.10,0.87,0000 0000 0000 0000 000000
2017-10-24 05:34:54,0.10,0.08,0.00,17.28,20.59,23.67,14.14,46.17,1007.09,2055.96,3554.36,3115.60,3569.30,600.05,602.13,0.92,0000 0000 0000 0000 000000
2017-10-24 05:39:55,0.10,0.08,0.00,17.26,20.59,23.69,14.11,46.21,1007.03,2055.95,3552.21,3113.83,3567.27,600.05,602.09,0.97,0000 0000 0000 0000 000000
2017-10-24 05:44:56,0.10,0.09,0.00,17.27,20.60,23.67,14.10,46.19,1007.11,2055.89,3549.85,3112.11,3565.24,599.86,602.05,1.02,0000 0000 0000 0000 000000
2017-10-24 05:49:58,0.09,0.10,0.00,17.27,20.61,23.70,14.00,46.23,1006.95,2055.87,3547.79,3110.50,3563.38,599.95,601.96,1.07,0000 0000 0000 0000 000000
2017-10-24 05:54:59,0.04,0.10,0.00,17.27,20.62,23.69,14.14,46.23,1006.91,2055.39,3545.82,3108.92,3561.61,600.10,602.09,1.12,0000 0000 0000 0000 000000
2017-10-24 06:00:01,0.07,0.10,0.00,17.27,20.62,23.69,14.03,46.31,1006.99,2055.16,3543.90,3107.49,3560.02,599.91,602.10,1.17,0000 0000 0000 0000 000000
2017-10-24 06:05:02,0.05,0.10,0.00,17.27,20.62,23.70,14.07,46.33,1007.04,2055.10,3542.58,3106.62,3558.99,600.00,601.97,1.22,0000 0000 0000 0000 000000
2017-10-24 06:10:03,0.05,0.11,0.00,17.27,20.62,23.71,14.01,46.20,1007.20,2055.20,3541.49,3105.95,3558.12,599.69,601.80,1.27,0000 0000 0000 0000 000000
2017-10-24 06:15:04,0.06,0.11,0.00,17.27,20.62,23.70,14.11,46.36,1007.32,2055.42,3540.41,3105.16,3557.49,600.04,602.28,1.32,0000 0000 0000 0000 000000
2017-10-24 06:20:06,0.05,0.11,0.00,17.26,20.62,23.69,14.07,46.38,1007.31,2055.42,3539.26,3104.27,3556.48,600.03,602.31,1.37,0000 0000 0000 0000 000000
2017-10-24 06:25:07,0.06,0.12,0.00,17.28,20.62,23.74,13.96,46.31,1007.29,2055.46,3538.07,3103.43,3555.50,599.73,601.89,1.42,0000 0000 0000 0000 000000
2017-10-24 06:30:08,0.07,0.12,0.00,17.28,20.62,23.74,14.09,46.38,1007.32,2055.43,3536.58,3102.41,3554.45,599.94,602.13,1.47,0000 0000 0000 0000 000000
2017-10-24 06:35:10,0.04,0.12,0.00,17.29,20.62,23.72,14.04,46.43,1007.32,2055.42,3535.34,3101.50,3553.45,599.80,602.05,1.52,0000 0000 0000 0000 000000
2017-10-24 06:40:11,0.06,0.13,0.00,17.27,20.62,23.71,14.09,46.44,1007.33,2055.58,3534.12,3100.73,3552.58,600.17,602.53,1.57,0000 0000 0000 0000 000000
2017-10-24 06:45:13,0.04,0.13,0.00,17.27,20.63,23.72,14.14,46.48,1007.32,2055.55,3532.97,3099.95,3551.69,600.36,602.70,1.63,0000 0000 0000 0000 000000
2017-10-24 06:50:14,0.02,0.13,0.00,17.28,20.64,23.72,14.11,46.63,1007.12,2055.30,3531.82,3099.03,3550.52,599.99,602.09,1.68,0000 0000 0000 0000 000000
2017-10-24 06:55:15,0.05,0.13,0.00,17.28,20.64,23.74,13.97,46.56,1007.12,2055.20,3530.65,3098.13,3549.60,599.54,601.80,1.73,0000 0000 0000 0000 000000
2017-10-24 07:00:16,0.06,0.13,0.00,17.26,20.64,23.74,14.10,46.59,1007.09,2055.32,3529.49,3097.35,3548.76,599.73,601.85,1.78,0000 0000 0000 0000 000000
2017-10-24 07:05:18,0.05,0.14,0.00,17.26,20.64,23.74,14.18,46.64,1007.21,2055.43,3528.34,3096.58,3547.94,600.07,602.27,1.83,0000 0000 0000 0000 000000
2017-10-24 07:10:19,0.05,0.14,0.00,17.25,20.64,23.73,14.14,46.53,1007.24,2055.62,3527.20,3095.93,3547.07,599.98,602.24,1.88,0000 0000 0000 0000 000000
2017-10-24 07:15:21,0.06,0.14,0.00,17.25,20.64,23.74,14.08,46.56,1007.23,2055.83,3526.14,3095.10,3546.26,600.03,602.18,1.93,0000 0000 0000 0000 000000
2017-10-24 07:20:22,0.03,0.15,0.00,17.25,20.64,23.72,14.13,46.59,1007.29,2055.72,3525.16,3094.43,3545.44,599.84,602.14,1.98,0000 0000 0000 0000 000000
2017-10-24 07:25:23,0.04,0.15,0.00,17.24,20.64,23.76,14.12,46.67,1007.25,2055.65,3524.17,3093.78,3544.73,600.33,602.52,2.03,0000 0000 0000 0000 000000
2017-10-24 07:30:24,0.04,0.15,0.00,17.22,20.64,23.76,14.12,46.68,1007.30,2055.64,3523.19,3093.03,3543.92,600.19,602.42,2.08,0000 0000 0000 0000 000000
2017-10-24 07:35:26,0.06,0.15,0.00,17.22,20.64,23.74,14.15,46.47,1007.27,2055.62,3522.23,3092.28,3543.06,599.93,602.31,2.13,0000 0000 0000 0000 000000
2017-10-24 07:40:27,0.06,0.16,0.00,17.21,20.64,23.75,14.04,46.50,1007.18,2055.77,3521.12,3091.59,3542.26,599.71,602.00,2.18,0000 0000 0000 0000 000000
2017-10-24 07:45:28,0.03,0.16,0.00,17.19,20.64,23.76,14.11,46.62,1007.08,2055.67,3520.13,3090.96,3541.44,600.10,602.35,2.23,0000 0000 0000 0000 000000
2017-10-24 07:50:29,0.05,0.16,0.00,17.21,20.64,23.77,14.17,46.52,1007.28,2055.71,3519.17,3090.12,3540.61,600.03,602.45,2.28,0000 0000 0000 0000 000000
2017-10-24 07:55:31,0.03,0.16,0.00,17.22,20.64,23.74,14.14,46.58,1007.25,2055.67,3518.13,3089.35,3539.83,600.03,602.35,2.33,0000 0000 0000 0000 000000
2017-10-24 08:00:32,0.05,0.17,0.00,17.19,20.64,23.75,14.10,46.49,1007.32,2055.82,3517.09,3088.69,3539.00,600.33,602.81,2.38,0000 0000 0000 0000 000000
2017-10-24 08:05:33,0.03,0.17,0.00,17.21,20.64,23.73,14.11,46.56,1007.33,2055.76,3516.09,3087.97,3538.10,599.85,602.28,2.43,0000 0000 0000 0000 000000
2017-10-24 08:10:34,0.06,0.17,0.00,17.19,20.64,23.73,14.07,46.54,1007.26,2055.80,3515.05,3087.13,3537.35,600.22,602.59,2.48,0000 0000 0000 0000 000000
2017-10-24 08:15:35,0.04,0.17,0.00,17.20,20.64,23.73,14.12,46.66,1007.25,2055.72,3514.02,3086.43,3536.50,599.92,602.20,2.53,0000 0000 0000 0000 000000
2017-10-24 08:20:37,0.04,0.17,0.00,17.20,20.64,23.76,14.15,46.57,1007.24,2055.83,3513.09,3085.88,3535.82,600.28,602.61,2.58,0000 0000 0000 0000 000000
2017-10-24 08:25:38,0.04,0.18,0.00,17.19,20.65,23.75,14.07,46.47,1007.12,2055.82,3512.04,3085.03,3534.92,599.93,602.21,2.63,0000 0000 0000 0000 000000
2017-10-24 08:30:39,0.05,0.18,0.00,17.19,20.65,23.74,14.11,46.63,1006.97,2055.70,3510.78,3084.10,3533.89,599.99,602.17,2.68,0000 0000 0000 0000 000000
2017-10-24 08:35:41,0.05,0.18,0.00,17.17,20.65,23.75,14.16,46.58,1006.90,2055.61,3509.54,3083.21,3532.84,600.48,602.58,2.73,0000 0000 0000 0000 000000
2017-10-24 08:40:42,0.06,0.19,0.00,17.20,20.65,23.77,14.08,46.63,1006.88,2055.67,3508.29,3082.27,3531.86,600.05,602.10,2.78,0000 0000 0000 0000 000000
2017-10-24 08:45:43,0.04,0.19,0.00,17.20,20.65,23.73,14.14,46.58,1006.95,2055.63,3507.25,3081.52,3530.82,599.97,602.13,2.83,0000 0000 0000 0000 000000
2017-10-24 08:50:44,0.03,0.19,0.00,17.19,20.65,23.73,14.01,46.71,1007.13,2055.44,3506.04,3080.65,3529.88,599.53,601.88,2.88,0000 0000 0000 0000 000000
2017-10-24 08:55:45,0.06,0.19,0.00,17.21,20.65,23.72,14.03,46.51,1007.20,2055.66,3504.98,3079.92,3529.04,600.04,602.25,2.93,0000 0000 0000 0000 000000
2017-10-24 09:00:47,0.07,0.20,0.00,17.20,20.65,23.77,14.09,46.63,1007.26,2055.85,3503.99,3079.09,3528.20,599.99,602.51,2.98,0000 0000 0000 0000 000000
2017-10-24 09:05:48,0.06,0.20,0.00,17.21,20.65,23.74,14.11,46.58,1007.14,2055.92,3502.90,3078.41,3527.46,600.39,602.66,3.03,0000 0000 0000 0000 000000
2017-10-24 09:10:49,0.05,0.20,0.00,17.21,20.65,23.74,14.04,46.68,1006.97,2055.91,3501.88,3077.60,3526.50,599.88,602.03,3.08,0000 0000 0000 0000 000000
2017-10-24 09:15:50,0.03,0.20,0.00,17.23,20.65,23.71,14.08,46.52,1006.90,2055.97,3500.94,3076.98,3525.81,599.96,602.04,3.13,0000 0000 0000 0000 000000
2017-10-24 09:20:51,0.05,0.21,0.00,17.25,20.65,23.71,14.07,46.53,1006.86,2055.95,3499.85,3076.13,3524.95,599.86,601.92,3.18,0000 0000 0000 0000 000000
2017-10-24 09:25:53,0.05,0.21,0.00,17.23,20.66,23.71,14.09,46.63,1006.87,2055.95,3498.76,3075.32,3524.05,600.10,602.14,3.23,0000 0000 0000 0000 000000
2017-10-24 09:30:54,0.05,0.21,0.00,17.25,20.66,23.71,14.03,46.66,1006.86,2055.93,3497.69,3074.67,3523.13,600.00,602.10,3.28,0000 0000 0000 0000 000000
2017-10-24 09:35:55,0.05,0.21,0.00,17.24,20.67,23.74,14.10,46.63,1006.86,2055.94,3496.56,3073.83,3522.29,600.31,602.49,3.33,0000 0000 0000 0000 000000
2017-10-24 09:40:57,0.04,0.22,0.00,17.25,20.67,23.73,14.12,46.74,1006.86,2055.92,3495.47,3072.99,3521.26,599.98,602.03,3.38,0000 0000 0000 0000 000000
2017-10-24 09:45:58,0.05,0.22,0.00,17.27,20.67,23.71,14.11,46.67,1006.86,2055.94,3494.29,3072.13,3520.32,600.32,602.28,3.43,0000 0000 0000 0000 000000
2017-10-24 09:50:59,0.05,0.22,0.00,17.28,20.67,23.73,14.07,46.64,1006.85,2055.92,3493.27,3071.26,3519.43,599.78,601.72,3.48,0000 0000 0000 0000 000000
2017-10-24 09:56:00,0.02,0.22,0.00,17.28,20.67,23.71,14.10,46.76,1006.87,2055.68,3492.25,3070.52,3518.55,600.19,602.28,3.53,0000 0000 0000 0000 000000
2017-10-24 10:01:02,0.02,0.22,0.00,17.28,20.68,23.73,14.07,46.60,1006.86,2055.37,3491.13,3069.76,3517.48,599.91,601.72,3.58,0000 0000 0000 0000 000000
2017-10-24 10:06:03,0.03,0.23,0.00,17.28,20.69,23.75,14.19,46.58,1006.85,2055.29,3490.18,3069.00,3516.62,600.27,602.30,3.63,0000 0000 0000 0000 000000
2017-10-24 10:11:05,0.05,0.23,0.00,17.30,20.69,23.75,14.08,46.63,1006.85,2055.24,3489.07,3068.13,3515.80,599.87,601.76,3.68,0000 0000 0000 0000 000000
2017-10-24 10:16:06,0.04,0.23,0.00,17.28,20.69,23.74,14.10,46.68,1006.85,2055.14,3487.99,3067.37,3514.89,600.43,602.37,3.73,0000 0000 0000 0000 000000
2017-10-24 10:21:07,0.05,0.23,0.00,17.28,20.69,23.77,14.06,46.59,1006.85,2055.12,3486.87,3066.60,3513.97,600.09,602.11,3.78,0000 0000 0000 0000 000000
2017-10-24 10:26:09,0.04,0.24,0.00,17.30,20.69,23.75,14.03,46.73,1006.85,2055.05,3485.84,3065.80,3512.94,599.58,601.42,3.83,0000 0000 0000 0000 000000
2017-10-24 10:31:10,0.04,0.24,0.00,17.29,20.69,23.76,14.08,46.75,1006.84,2055.01,3484.88,3065.01,3512.02,599.79,601.69,3.88,0000 0000 0000 0000 000000
2017-10-24 10:36:11,0.06,0.24,0.00,17.32,20.69,23.82,14.19,46.75,1006.85,2055.01,3483.84,3064.19,3511.14,600.55,602.37,3.93,0000 0000 0000 0000 000000
2017-10-24 10:41:12,0.05,0.24,0.00,17.33,20.69,23.81,14.02,46.70,1006.85,2055.00,3482.70,3063.44,3510.15,599.32,601.09,3.99,0000 0000 0000 0000 000000
2017-10-24 10:46:14,0.04,0.25,0.00,17.32,20.70,23.78,14.07,46.67,1006.85,2055.00,3481.58,3062.67,3509.31,600.05,601.90,4.04,0000 0000 0000 0000 000000
2017-10-24 10:51:15,0.03,0.25,0.00,17.34,20.71,23.80,14.12,46.68,1006.85,2055.01,3480.57,3061.95,3508.53,599.71,601.51,4.09,0000 0000 0000 0000 000000
2017-10-24 10:56:16,0.05,0.25,0.00,17.36,20.72,23.83,13.99,46.68,1006.85,2055.00,3479.58,3061.10,3507.65,599.18,600.98,4.14,0000 0000 0000 0000 000000
2017-10-24 11:01:18,0.05,0.25,0.00,17.36,20.72,23.80,14.07,46.66,1006.85,2055.00,3478.45,3060.29,3506.72,599.96,601.74,4.19,0000 0000 0000 0000 000000
2017-10-24 11:06:19,0.05,0.26,0.00,17.34,20.72,23.82,14.04,46.63,1006.84,2055.01,3477.27,3059.45,3505.96,599.72,601.49,4.24,0000 0000 0000 0000 000000
2017-10-24 11:11:20,0.04,0.26,0.00,17.34,20.72,23.81,14.06,46.58,1006.85,2055.00,3476.21,3058.81,3505.08,599.84,601.81,4.29,0000 0000 0000 0000 000000
2017-10-24 11:16:21,0.04,0.26,0.00,17.34,20.72,23.84,14.08,46.63,1006.84,2055.00,3475.19,3058.02,3504.18,599.83,601.82,4.34,0000 0000 0000 0000 000000
2017-10-24 11:21:23,0.05,0.26,0.00,17.33,20.72,23.84,14.12,46.75,1006.84,2055.01,3474.12,3057.16,3503.28,600.38,602.18,4.39,0000 0000 0000 0000 000000
2017-10-24 11:26:24,0.05,0.27,0.00,17.34,20.72,23.81,14.08,46.63,1006.85,2055.02,3472.96,3056.35,3502.46,600.01,601.81,4.44,0000 0000 0000 0000 000000
2017-10-24 11:31:25,0.05,0.27,0.00,17.34,20.72,23.85,14.07,46.65,1006.85,2055.03,3471.83,3055.66,3501.58,600.27,602.07,4.49,0000 0000 0000 0000 000000
2017-10-24 11:36:26,0.04,0.27,0.00,17.34,20.73,23.86,14.07,46.61,1006.85,2055.02,3470.76,3054.85,3500.60,599.97,601.79,4.54,0000 0000 0000 0000 000000
2017-10-24 11:41:28,0.05,0.27,0.00,17.35,20.74,23.84,14.08,46.70,1006.85,2055.02,3469.61,3053.96,3499.64,600.06,601.90,4.59,0000 0000 0000 0000 000000
2017-10-24 11:46:29,0.05,0.28,0.00,17.33,20.74,23.85,14.08,46.72,1006.85,2055.00,3468.35,3053.05,3498.56,599.91,601.78,4.64,0000 0000 0000 0000 000000
2017-10-24 11:51:30,0.05,0.28,0.00,17.34,20.74,23.86,14.08,46.73,1006.85,2055.00,3467.23,3052.15,3497.65,600.22,602.16,4.69,0000 0000 0000 0000 000000
2017-10-24 11:56:31,0.05,0.28,0.00,17.34,20.74,23.84,14.07,46.63,1006.85,2055.00,3466.11,3051.44,3496.79,600.06,601.97,4.74,0000 0000 0000 0000 000000
2017-10-24 12:01:33,0.05,0.28,0.00,17.34,20.74,23.86,14.12,46.67,1006.85,2055.00,3465.02,3050.58,3495.82,600.15,601.93,4.79,0000 0000 0000 0000 000000
2017-10-24 12:06:34,0.03,0.29,0.00,17.34,20.75,23.82,14.04,46.67,1006.84,2055.00,3464.05,3049.88,3494.95,599.78,601.60,4.84,0000 0000 0000 0000 000000
2017-10-24 12:11:36,0.05,0.29,0.00,17.33,20.75,23.84,14.14,46.72,1006.84,2055.00,3463.04,3049.04,3494.06,600.25,602.10,4.89,0000 0000 0000 0000 000000
2017-10-24 12:16:37,0.05,0.29,0.00,17.33,20.76,23.85,14.11,46.76,1006.84,2055.00,3462.05,3048.38,3493.29,600.13,601.88,4.94,0000 0000 0000 0000 000000
2017-10-24 12:21:38,0.04,0.29,0.00,17.34,20.77,23.84,14.10,46.63,1006.82,2054.99,3461.02,3047.66,3492.41,600.17,601.96,4.99,0000 0000 0000 0000 000000
2017-10-24 12:26:39,0.03,0.30,0.00,17.33,20.77,23.85,14.12,46.77,1006.76,2054.99,3460.05,3047.00,3491.84,599.93,601.69,5.04,0000 0000 0000 0000 000000
2017-10-24 12:31:40,0.05,0.30,0.00,17.33,20.77,23.89,14.09,46.77,1006.82,2054.99,3458.95,3046.15,3490.95,600.10,601.98,5.09,0000 0000 0000 0000 000000
2017-10-24 12:36:42,0.05,0.30,0.00,17.35,20.77,23.86,14.11,46.67,1006.83,2054.99,3457.87,3045.33,3490.00,600.33,602.17,5.14,0000 0000 0000 0000 000000
2017-10-24 12:41:43,0.04,0.30,0.00,17.35,20.77,23.88,14.07,46.69,1006.84,2054.99,3456.92,3044.57,3489.04,600.04,601.82,5.19,0000 0000 0000 0000 000000
2017-10-24 12:46:44,0.03,0.31,0.00,17.36,20.77,23.88,14.12,46.73,1006.85,2054.99,3456.07,3043.97,3488.12,600.06,601.83,5.24,0000 0000 0000 0000 000000
2017-10-24 12:51:45,0.04,0.31,0.00,17.37,20.77,23.88,14.14,46.77,1006.84,2054.99,3455.27,3043.20,3487.61,600.09,601.82,5.29,0000 0000 0000 0000 000000
2017-10-24 12:56:46,0.02,0.31,0.00,17.35,20.77,23.86,14.04,46.80,1006.85,2054.99,3454.60,3042.82,3486.94,599.66,601.54,5.34,0000 0000 0000 0000 000000
2017-10-24 13:01:47,0.04,0.31,0.00,17.37,20.78,23.87,14.02,46.65,1006.85,2054.99,3453.93,3042.05,3486.10,599.92,601.67,5.39,0000 0000 0000 0000 000000